Home > Weather > Irving > Past weeks

Flag for U.S.A. Weather for the Past 2 Weeks in Irving, Texas, U.S.A.

Now
39 °F

Clear.


Feels Like: 39 °F
Forecast: 36 / 71 °F
Wind: No wind

Location: Dallas / Fort Worth International Airport

Current Time: Feb 10, 2016 at 3:22:06 AM

Latest Report: Feb 10, 2016 at 2:53 AM


Visibility: 10 mi

Pressure: 30.32 "Hg

Humidity: 55%

Dew point: 24 °F

Location of IrvingLocation

Historic Weather in Irving — Graph

°F

Irving Temperature Yesterday

Maximum temperature yesterday: 63 °F (at 2:53 PM)
Minimum temperature yesterday: 39 °F (at 6:53 AM)
Average temperature yesterday: 49 °F

High & Low Weather Summary for the Past Weeks

 TemperatureHumidityPressure
High77 °F (Jan 29, 2:53 PM)90% (Jan 31, 4:53 AM)30.51 "Hg (Jan 31, 4:53 AM)
Low33 °F (Jan 27, 4:53 AM)12% (Feb 8, 4:53 PM)29.50 "Hg (Feb 1, 9:53 PM)
Average50 °F48%30.09 "Hg
* Reported Jan 26 1:53 AM — Feb 10 1:53 AM, Irving, Weather by CustomWeather, © 2016

Note: Actual official high and low records may vary slightly from our data, if they occured in-between our weather recording intervals... More about our weather records

Advertising

Irving Weather History for the Previous 24 Hours

 ConditionsComfort  
Time TempWeatherWind HumidityBarometerVisibility
1:53 AM
Wed, Feb 10
40 °FClear.5 mph58%30.32 "Hg10 mi
12:53 AM43 °FPassing clouds.3 mph47%30.31 "Hg10 mi
11:53 PM
Tue, Feb 9
41 °FClear.7 mph51%30.32 "Hg10 mi
10:53 PM44 °FClear.6 mph47%30.31 "Hg10 mi
9:53 PM47 °FClear.12 mph42%30.29 "Hg10 mi
8:53 PM50 °FPassing clouds.9 mph36%30.28 "Hg10 mi
7:53 PM51 °FPassing clouds.12 mph38%30.27 "Hg10 mi
6:53 PM53 °FPassing clouds.10 mph34%30.26 "Hg10 mi
5:53 PM58 °FPassing clouds.17 mph27%30.25 "Hg10 mi
4:53 PM62 °FPassing clouds.18 mph22%30.23 "Hg10 mi
3:53 PM63 °FPassing clouds.16 mph23%30.22 "Hg10 mi
2:53 PM63 °FPassing clouds.14 mph23%30.21 "Hg10 mi
1:53 PM62 °FSunny.17 mph23%30.22 "Hg10 mi
12:53 PM60 °FSunny.14 mph23%30.25 "Hg10 mi
11:53 AM57 °FPassing clouds.14 mph24%30.28 "Hg10 mi
10:53 AM53 °FPassing clouds.10 mph22%30.29 "Hg10 mi
9:53 AM50 °FPassing clouds.13 mph24%30.30 "Hg10 mi
8:53 AM44 °FPassing clouds.13 mph28%30.30 "Hg10 mi
7:53 AM41 °FPassing clouds.10 mph29%30.28 "Hg10 mi
6:53 AM39 °FPassing clouds.10 mph30%30.27 "Hg10 mi
5:53 AM40 °FClear.14 mph27%30.28 "Hg10 mi
4:53 AM40 °FClear.10 mph28%30.27 "Hg10 mi
3:53 AM40 °FClear.12 mph29%30.28 "Hg10 mi
Weather by CustomWeather, © 2016

See weather overviewHow to use our weather pages